Location: Sternwarte ZA, Rosenfeld-Brittheim
(48.2889°N, 8.6789°E)
Time: 06:30:46
(UTC+01:00)

ISS - Pass Details

Date: 22 November 2020
Orbit: 418 x 421 km, 51.6° (Epoch: 26 November)

Event Time Altitude Azimuth Distance (km) Brightness Sun altitude
Rises 18:05:23 0° 218° (SW) 2,352 1.0 -14.0°
Reaches altitude 10° 18:07:37 10° 208° (SSW) 1,492 -0.4 -14.4°
Maximum altitude 18:10:37 31° 144° (SE) 759 -2.7 -14.9°
Enters shadow 18:11:30 27° 113° (ESE) 850 -2.7 -15.0°
